Regional Weather Roundup
Issued by NWS Charleston, SC

Current Version | Previous Version | Graphics & Text | Print | Product List | Glossary On
Versions: 1 2 3 4 5 6 7 8 9 10 11 12 13 14 15 16 17 18 19 20 21 22 23 24 25 26 27 28 29 30 31 32 33 34 35 36 37 38 39 40 41 42 43 44 45 46 47 48 49 50
000 ASUS42 KCHS 220025 RWRCHS REGIONAL WEATHER ROUNDUP NATIONAL WEATHER SERVICE CHARLESTON SC 700 PM EST TUE FEB 21 2017 NOTE: "FAIR" INDICATES FEW OR NO CLOUDS BELOW 12,000 FEET WITH NO SIGNIFICANT WEATHER AND/OR OBSTRUCTIONS TO VISIBILITY. NOT ALL STATIONS ARE QUALITY CONTROLLED. USE DATA WITH CAUTION... ESPECIALLY DEWPOINT OBSERVATIONS. SCZ027-030-031-034>040-042>050-220100- ...SOUTHEAST SOUTH CAROLINA... CITY SKY/WX TMP DP RH WIND PRES REMARKS N CHARLESTON MOCLDY 63 57 81 E6 30.08R 6HR MIN TEMP: 63; 6HR MAX TEMP: 71; WATERFRONT PRK N/A 62 60 93 E13 30.07R MOUNT PLEASANT FAIR 61 59 94 CALM 30.09R JOHNS ISLAND MOCLDY 63 59 88 NE8 30.07F PINOPOLIS N/A 64 57 77 VRB3 30.00S MONCKS CORNER MOCLDY 63 55 77 E7 30.08F SUMMERVILLE CLOUDY 64 57 77 E5 30.08F BEAUFORT MCAS CLOUDY 65 62 90 E8 30.06S 6HR MIN TEMP: 65; 6HR MAX TEMP: 70; BEAUFORT ARPT CLOUDY 63 59 88 E6 30.05F HILTON HEAD IS PTCLDY 63 61 94 NE6 30.06S WALTERBORO PTCLDY 63 57 82 E6 30.07S ALLENDALE CLOUDY 66 61 82 CALM 30.04S ...SOUTHERN MIDLANDS AND PEE DEE... CITY SKY/WX TMP DP RH WIND PRES REMARKS GEORGETOWN FAIR 55 54 94 E6 30.11S KINGSTREE MOCLDY 61 52 72 E5 30.10S ORANGEBURG CLOUDY 65 55 70 E5 30.07S 6HR MIN TEMP: 65; 6HR MAX TEMP: 69; BARNWELL CLOUDY 64 63 94 E3 30.06S AIKEN CLOUDY 63 54 72 E8 30.09S MANNING CLOUDY 63 45 51 MISG 30.09S COLUMBIA CLOUDY 67 53 61 E5 30.07R 6HR MIN TEMP: 67; 6HR MAX TEMP: 71; SUMTER CLOUDY 65 53 65 E5 30.07S 6HR MIN TEMP: 65; 6HR MAX TEMP: 69; FLORENCE CLOUDY 64 52 64 SE6 30.11R 6HR MIN TEMP: 64; 6HR MAX TEMP: 70; MYRTLE BEACH CLOUDY 59 54 82 E13 30.14R N MYRTLE BEACH CLOUDY 61 53 75 E8 30.11S 6HR MIN TEMP: 60; 6HR MAX TEMP: 69; $$ GAZ063-065-086>088-099>101-113>116-118-119-134>141-150-220100- ...SOUTHEAST GEORGIA... CITY SKY/WX TMP DP RH WIND PRES REMARKS SAVANNAH ARPT CLOUDY 69 59 70 E10 30.04S 6HR MIN TEMP: 69; 6HR MAX TEMP: 75; HUNTER AAF CLOUDY 68 64 88 E10 30.01S 6HR MIN TEMP: 68; 6HR MAX TEMP: 75; FORT STEWART CLOUDY 66 63 88 E5 29.99F 6HR MIN TEMP: 69; 6HR MAX TEMP: 75; 6HR PCP: TRACE; STATESBORO CLOUDY 69 64 81 E5 30.02F SYLVANIA CLOUDY N/A N/A N/A SE8 30.04F CLAXTON CLOUDY N/A N/A N/A E3 30.01F ...CSRA...CENTRAL AND FAR SOUTHEAST GEORGIA... CITY SKY/WX TMP DP RH WIND PRES REMARKS THOMSON CLOUDY 68 60 77 E7 30.07S AUGUSTA-BUSH CLOUDY 69 58 67 E6 30.03S 6HR MIN TEMP: 69; 6HR MAX TEMP: 75; AUGUSTA-DANIEL CLOUDY 68 55 63 E10 30.05R SWAINSBORO CLOUDY 70 59 68 E6 30.01F VIDALIA MOCLDY 68 63 83 E6 29.99F EASTMAN FAIR 69 50 51 E3 29.99F HAZLEHURST MOCLDY 71 62 73 E6 29.97F ALMA PTCLDY 68 59 73 E5 29.98S 6HR MIN TEMP: 68; 6HR MAX TEMP: 76; WAYCROSS CLEAR 71 64 79 E5 29.98S JESUP FAIR 70 61 73 SE5 30.00F BAXLEY MOCLDY 68 63 83 E3 29.98F BRUNSWICK MOCLDY 68 66 94 CALM 30.01F SAINT SIMONS CLOUDY 66 64 93 SE5 30.00F 6HR MIN TEMP: 66; 6HR MAX TEMP: 73; 6HR PCP: 0.01; $$ SCZ027-028-034-036>038-045-046-048>050-GAZ119-141-220100- ...LAKE AND SUPPLEMENTAL COASTAL OBSERVATIONS... STATION/POSITION TIME TEMP WIND PRES WAVE SWELL AIR SEA DIR/SP/G HT/PER HT/PER/DIR (UTC) (F) (DEG/KT/KT) (MB) (FT/S) (FT/S/D) WINYAH BAY 2345 59 60/ 8 1019.0S LAKE MURRAY 2330 64 60/ 2/ 5 1017.9S ACE BASIN NERRS 2345 65 80/ 2 1018.0S FORT PULASKI 0000 67 61 120/ 8/ 11 1017.2 SAPELO ISLAND 0000 67 110/ 7 1016.0 $$ ANZ835-935-AMZ111-154-330-350-352-354-370-450-454-472-220100- ...C-MAN AND BUOY OBSERVATIONS... STATION/POSITION TIME TEMP WIND PRES WAVE SWELL AIR SEA DIR/SP/G HT/PER HT/PER/DIR (UTC) (F) (DEG/KT/KT) (MB) (FT/S) (FT/S/D) BUOY 41004 2350 70 69 110/ 14/ 17 1017.9R 4/ 6 2/140/13 BUOY 41008 2350 66 63 110/ 6/ 8 1016.6R 3/ 5 3/100/ 5 FOLLY BEACH CMAN 0000 60 60/ 12/ 14 1018.9S CAPERS NEARSHORE 2308 60 59 70/ 14/ 17 1018.3F FRIPP NEARSHORE 0008 62 60 70/ 8/ 10 1017.3F STATION/POSITION TIME TEMP WIND PRES WAVE SWELL AIR SEA DIR/SP/G HT/PER HT/PER/DIR (UTC) (F) (DEG/KT/KT) (MB) (FT/S) (FT/S/D) 5E ST. MARYS GA 0000 65 N/A 2/ 4 FRYING PAN BUOY 0010 68 68 100/ 14/ 16 1019.5 BUOY 41025 2350 63 75 130/ 10/ 14 1021.8R 4/ 8 3/ 40/ 8 CAPE LOOKOUT NC 0000 58 20/ 7/ 10 1020.8F BUOY 41002 2350 65 71 70/ 14/ 17 1020.2F 5/ 8 3/ 20/ 8 BUOY 41010 NOT AVBL ST AUGUSTINE FL 0000 69 68 140/ 12/ 14 1016.2F $$

USA.gov is the U.S. government's official web portal to all federal, state and local government web resources and services.